TimeEST,TemperatureF,Dew PointF,Humidity,Sea Level PressureIn,VisibilityMPH,Wind Direction,Wind SpeedMPH,Gust SpeedMPH,PrecipitationIn,Events,Conditions,WindDirDegrees,DateUTC
12:30 AM,26.6,24.8,93,29.61,2.0,WSW,10.4,19.6,0.00,Snow,Light Snow,240,2013-01-01 05:30:00
12:37 AM,26.6,24.8,93,29.61,1.5,WSW,9.2,21.9,0.00,Snow,Light Snow,250,2013-01-01 05:37:00
12:51 AM,27.0,24.1,89,29.68,1.8,WSW,10.4,24.2,0.00,Snow,Light Snow,250,2013-01-01 05:51:00
12:58 AM,26.6,24.8,93,29.61,2.0,WSW,12.7,24.2,0.00,Snow,Light Snow,250,2013-01-01 05:58:00
1:21 AM,26.6,23.0,86,29.61,3.0,WSW,12.7,20.7,0.00,Snow,Light Snow,250,2013-01-01 06:21:00
1:34 AM,26.6,23.0,86,29.61,1.8,WSW,13.8,28.8,0.00,Snow,Light Snow,240,2013-01-01 06:34:00
1:37 AM,26.6,23.0,86,29.62,0.8,West,18.4,28.8,0.00,Snow,Light Snow,260,2013-01-01 06:37:00
1:41 AM,26.6,23.0,86,29.63,0.5,West,9.2,28.8,0.01,Fog-Snow,Snow,270,2013-01-01 06:41:00
1:51 AM,25.0,23.0,92,29.70,0.5,West,5.8,21.9,0.01,Fog-Snow,Snow,270,2013-01-01 06:51:00
1:58 AM,24.8,21.2,86,29.64,2.0,WNW,13.8,26.5,0.00,Snow,Light Snow,290,2013-01-01 06:58:00
2:08 AM,24.8,19.4,80,29.65,5.0,WNW,11.5,26.5,0.00,Snow,Light Snow,290,2013-01-01 07:08:00
2:17 AM,24.8,19.4,80,29.65,6.0,West,12.7,24.2,0.00,,Haze,280,2013-01-01 07:17:00
2:26 AM,24.8,19.4,80,29.65,7.0,WNW,9.2,18.4,0.00,,Overcast,290,2013-01-01 07:26:00
2:51 AM,23.0,18.0,81,29.72,5.0,WNW,8.1,19.6,0.00,,Haze,290,2013-01-01 07:51:00
3:51 AM,21.0,16.0,81,29.74,3.0,WNW,6.9,17.3,0.00,Snow,Light Snow,300,2013-01-01 08:51:00
3:58 AM,19.4,15.8,86,29.68,2.5,NW,10.4,17.3,0.00,Snow,Light Snow,310,2013-01-01 08:58:00
4:24 AM,19.4,14.0,80,29.70,1.8,NW,12.7,20.7,0.00,Snow,Light Snow,310,2013-01-01 09:24:00
4:51 AM,17.1,12.0,81,29.78,1.5,WNW,9.2,17.3,0.00,Snow,Light Snow,300,2013-01-01 09:51:00
5:11 AM,15.8,10.4,79,29.72,1.0,NNW,6.9,-,0.00,Snow,Light Snow,330,2013-01-01 10:11:00
5:19 AM,14.0,10.4,86,29.72,1.2,Variable,5.8,-,0.00,Snow,Light Snow,0,2013-01-01 10:19:00
5:44 AM,12.2,8.6,85,29.73,2.5,WNW,8.1,18.4,0.00,Snow,Light Snow,300,2013-01-01 10:44:00
5:51 AM,12.9,8.1,81,29.82,2.5,WNW,9.2,16.1,0.00,Snow,Light Snow,290,2013-01-01 10:51:00
6:03 AM,12.2,8.6,85,29.74,3.0,WNW,9.2,-,0.00,Snow,Light Snow,300,2013-01-01 11:03:00
6:51 AM,12.0,7.0,80,29.84,3.0,NW,9.2,-,0.00,Snow,Light Snow,310,2013-01-01 11:51:00
7:19 AM,10.4,6.8,85,29.76,3.0,WNW,5.8,-,0.00,Snow,Light Snow,300,2013-01-01 12:19:00
7:47 AM,10.4,6.8,85,29.77,2.0,Variable,4.6,-,0.00,Snow,Light Snow,0,2013-01-01 12:47:00
7:51 AM,10.0,6.1,84,29.86,2.0,West,5.8,-,0.00,Snow,Light Snow,280,2013-01-01 12:51:00
8:03 AM,10.4,5.0,79,29.78,3.0,Variable,4.6,-,0.00,,Haze,0,2013-01-01 13:03:00
8:51 AM,9.0,3.0,77,29.86,5.0,WNW,6.9,-,0.00,,Haze,300,2013-01-01 13:51:00
9:27 AM,8.6,3.2,79,29.79,2.0,Variable,4.6,-,0.00,Snow,Light Snow,0,2013-01-01 14:27:00
9:51 AM,9.0,3.9,80,29.87,1.5,West,5.8,-,0.00,Snow,Light Snow,270,2013-01-01 14:51:00
10:32 AM,8.6,3.2,79,29.79,1.5,Variable,4.6,-,0.00,,Haze,0,2013-01-01 15:32:00
10:51 AM,8.1,1.9,76,29.88,2.5,Variable,3.5,-,0.00,,Overcast,0,2013-01-01 15:51:00
11:02 AM,8.6,1.4,73,29.79,1.8,Variable,6.9,-,N/A,,Haze,0,2013-01-01 16:02:00
11:30 AM,8.6,1.4,73,29.79,3.0,Variable,6.9,-,N/A,,Haze,0,2013-01-01 16:30:00
11:51 AM,9.0,3.0,77,29.86,2.0,West,5.8,-,N/A,,Haze,270,2013-01-01 16:51:00
11:59 AM,8.6,3.2,79,29.78,1.5,WNW,8.1,-,0.00,Snow,Light Snow,290,2013-01-01 16:59:00
12:14 PM,8.6,3.2,79,29.78,3.0,Variable,4.6,-,0.00,,Haze,0,2013-01-01 17:14:00
12:51 PM,9.0,3.0,77,29.87,5.0,NW,8.1,-,0.00,,Haze,310,2013-01-01 17:51:00
1:51 PM,10.0,1.9,70,29.87,8.0,West,10.4,-,N/A,,Overcast,280,2013-01-01 18:51:00
2:51 PM,8.1,1.0,73,29.87,10.0,WNW,5.8,-,N/A,,Mostly Cloudy,300,2013-01-01 19:51:00
3:00 PM,8.6,1.4,73,29.78,9.0,WNW,4.6,-,N/A,,Partly Cloudy,290,2013-01-01 20:00:00
3:34 PM,8.6,1.4,73,29.77,10.0,WSW,8.1,-,N/A,,Mostly Cloudy,240,2013-01-01 20:34:00
3:51 PM,7.0,-0.0,73,29.87,10.0,WSW,8.1,-,N/A,,Mostly Cloudy,250,2013-01-01 20:51:00
4:27 PM,6.8,-0.4,72,29.78,10.0,WSW,5.8,-,N/A,,Scattered Clouds,250,2013-01-01 21:27:00
4:51 PM,5.0,-0.9,76,29.90,10.0,West,5.8,-,N/A,,Clear,260,2013-01-01 21:51:00
5:51 PM,3.9,-0.9,80,29.92,10.0,WSW,4.6,-,N/A,,Clear,250,2013-01-01 22:51:00
6:51 PM,3.0,-0.9,84,29.94,10.0,WSW,4.6,-,N/A,,Clear,250,2013-01-01 23:51:00
7:51 PM,1.0,-2.0,87,29.95,10.0,WSW,8.1,-,N/A,,Clear,240,2013-01-02 00:51:00
8:51 PM,1.0,-2.0,87,29.94,10.0,WSW,6.9,-,N/A,,Clear,240,2013-01-02 01:51:00
9:51 PM,1.0,-2.0,87,29.93,10.0,WSW,4.6,-,N/A,,Unknown,250,2013-01-02 02:51:00
10:51 PM,1.0,-2.0,87,29.95,10.0,SW,8.1,-,N/A,,Clear,230,2013-01-02 03:51:00
11:51 PM,1.0,-2.0,87,29.94,10.0,SW,9.2,-,N/A,,Mostly Cloudy,220,2013-01-02 04:51:00